Regional Weather Roundup
Issued by NWS Grand Forks, ND

Home | Current Version | Previous Version | Text Only | Print | Product List | Glossary On
Versions: 1 2 3 4 5 6 7 8 9 10 11 12 13 14 15 16 17 18 19 20 21 22 23 24 25 26 27 28 29 30 31 32 33 34 35 36 37 38 39 40 41 42 43 44 45 46 47 48 49 50
000
ASUS43 KFGF 271731
RWRFGF
PRAIRIE TO PINES  WEATHER ROUNDUP
NATIONAL WEATHER SERVICE EASTERN NORTH DAKOTA/GRAND FORKS ND
1200 PM CDT TUE JUN 27 2017

 **SATELLITE DATA USED TO AUGMENT SKY COVER AT AUTOMATED STATIONS**
 *****  WEATHER ACROSS EASTERN NORTH DAKOTA  *****

CITY           SKY/WX    TMP DP  RH WIND       PRES   REMARKS
GRAND FORKS    PTSUNNY   74  47  38 S18G31    29.79F
GRAND FRKS AFB FAIR      73  44  34 S22G30    29.78F
DEVILS LAKE    FAIR      73  47  39 SE21G35   29.70F
FARGO          FAIR      75  45  34 S21G32    29.85F
WAHPETON ARPT  FAIR      70  37  30 S23       29.89F
$$

 ***** WEATHER ACROSS CENTRAL AND WESTERN NORTH DAKOTA  *****

CITY           SKY/WX    TMP DP  RH WIND       PRES   REMARKS
BISMARCK       FAIR      80  54  40 S25       29.69F
MINOT          FAIR      72  49  44 S16G24    29.61F
JAMESTOWN      FAIR      68  47  46 S21G32    29.78F
MINOT AFB      FAIR      74  49  40 S18G25    29.60F
GARRISON         N/A     72  50  45 S20       29.65F
WILLISTON      FAIR      82  46  28 S13G20    29.57F
DICKINSON      FAIR      79  48  33 S14       29.61F
HETTINGER      FAIR      81  53  37 SE14G21   29.65F
$$

 *****  OTHER AIRPORT OBSERVATIONS IN OUR AREA  *****

CITY           SKY/WX    TMP DP  RH WIND       PRES   REMARKS
WALHALLA       NOT AVBL
GRAFTON AIRPOR FAIR      75  45  33 S23G29    29.77F
VALLEY CITY AR FAIR      66  48  52 S17G24    29.83F
CANDO          NOT AVBL
CAVALIER APRT  FAIR      75  46  35 S16G25    29.72F
GWINNER        CLOUDY    73  48  40 S22       29.83F
SHEYENNE NWR     N/A     69  49  47 S12       29.95S
ROLLA            N/A     73  50  43 S23G35    29.68F
 ***** THE ABOVE OBSERVATIONS ARE NON NWS ARE NOT QUALITY
       CONTROLLED AND MAY MIS-REPORT RAIN FOR SNOW...
$$

  *****  WEATHER ACROSS NORTHERN MINNESOTA  *****

CITY           SKY/WX    TMP DP  RH WIND       PRES   REMARKS
FLAG ISLAND    FAIR      70  50  49 S8G17     29.83F
WARROAD        FAIR      70  48  46 SW13G20   29.85F
ROSEAU         FAIR      72  48  43 S18G24    29.84S
HALLOCK        FAIR      72  45  37 S20       29.77F
THF RVR FALLS  FAIR      70  41  34 S21G26    29.85F
BAUDETTE       FAIR      72  44  36 S16G22    29.87F
WASKISH        FAIR      72  46  40 SW12G17   29.89F
CROOKSTON      FAIR      73  45  35 S24       29.82F
STEPHEN NDAWN    N/A     72  45  37 S16         N/A
GREENBUSH NDAW   N/A     72  39  30 S20         N/A
$$
  *****  WEATHER ACROSS CENTRAL AND WEST MINNESOTA  *****

CITY           SKY/WX    TMP DP  RH WIND       PRES   REMARKS
FOSSTON        FAIR      68  43  40 S20G25    29.88F
BEMIDJI        FAIR      70  43  37 S15G21    29.91F
PARK RAPIDS    FAIR      70  40  33 S14G23    29.94F
ELBOW LAKE     FAIR      68  44  41 S15       29.92F
WADENA         FAIR      68  43  40 S17       29.95S
DETROIT LAKES  FAIR      70  43  37 S14G20    29.91F
MOORHEAD       FAIR      72  43  35 S20G26    29.86F
FERGUS FALLS   FAIR      70  43  37 S18       29.88F
MORRIS MN      FAIR      73  43  33 S20       29.92F
STAPLES        FAIR      68  39  34 S12G18    29.96F
$$
  *****  WEATHER ELSEWHERE ACROSS MINNESOTA  *****

CITY           SKY/WX    TMP DP  RH WIND       PRES   REMARKS
DULUTH         FAIR      70  43  37 SW12G20   29.98F
INTRNTL FALLS  FAIR      71  43  36 SW13G21   29.90F
ELY            FAIR      68  41  37 SW14G20   29.94F
CLOQUET        FAIR      72  37  28 SW14      29.98F
WHEATON        FAIR      70  41  35 S13G21    29.92S
BRAINERD       FAIR      70  41  34 SW15G23   29.98F
HIBBING        FAIR      69  43  38 VRB7      29.96F
ALEXANDRIA     FAIR      70  42  36 S15       29.98F
SAINT CLOUD    FAIR      72  40  31 S18G24    30.00F
MINNEAPOLIS    PTSUNNY   72  42  34 S10       30.03F
$$

  *****  WEATHER ACROSS SOUTH DAKOTA  *****

CITY           SKY/WX    TMP DP  RH WIND       PRES   REMARKS
SIOUX FALLS    PTSUNNY   72  53  51 S21G30    29.97F
BROOKINGS      FAIR      70  45  40 S23G30    29.94F
WATERTOWN      FAIR      70  46  42 S16G28    29.91F
HURON          FAIR      74  53  48 S18G31    29.87F
SISSETON         N/A     73  47  39 S20       29.88F
ABERDEEN       FAIR      73  47  39 S18G29    29.84F
MITCHELL       FAIR      76  49  38 S22G29    29.90F
PIERRE         FAIR      80  56  43 S25G39    29.72F
MOBRIDGE       FAIR      79  52  38 S32G41    29.69F
RAPID CITY     FAIR      85  58  39 S18       29.66F
$$

  *****  SOME WEATHER IN NEARBY STATES *****

CITY           SKY/WX    TMP DP  RH WIND       PRES   REMARKS
GLASGOW MT     FAIR      80  51  36 NW20      29.60F
GREAT FALLS MT PTSUNNY   69  47  45 W15       29.78R
CHEYENNE WY    FAIR      86  38  18 S12       29.94F
SCOTTSBLUFF NE FAIR      82  58  43 SE9G20    29.77F
OMAHA NE       FAIR      75  57  53 SE18G24   30.03F
DES MOINES IA  FAIR      73  46  38 S9G22     30.09F
DAVENPORT IA   FAIR      71  43  36 VRB5      30.13F
CHICAGO IL     FAIR      73  44  35 NW12      30.12S
EAU CLAIRE WI  FAIR      71  44  37 S12G17    30.05F
LA CROSSE WI   FAIR      76  45  33 VRB6      30.07F
$$

  *****  SOME NATIONAL WEATHER *****

CITY           SKY/WX    TMP DP  RH WIND       PRES   REMARKS
LA GUARDIA NY  PTSUNNY   74  59  59 S13       29.97F
RALEIGH NC     FAIR      80  54  40 VRB6      30.07S
ATLANTA GA     FAIR      81  56  42 N14G21    30.10S
NEW ORLEANS LA PTSUNNY   86  64  47 N8        30.02F
OKLAHOMA CITY  PTSUNNY   83  68  60 S9        30.03S
ALBUQUERQUE NM FAIR      77  48  35 S9        30.18F
SALT LAKE CITY FAIR      86  43  22 CALM      29.93S
LOS ANGELES CA FAIR      73  62  68 W9        29.89S
BOISE ID       FAIR      77  50  38 NW9       29.94S
SEATTLE WA     CLOUDY    58  48  69 SW9       30.07S
$$

*** WEATHER ACROSS MANITOBA...SASKATCHEWAN AND ONTARIO ***
                ***ONTARIO***

CITY           SKY/WX    TMP DP  RH WIND       PRES   REMARKS
GERALDTON      PTSUNNY   70  50  49 W13G20    29.83F
THUNDER BAY    PTSUNNY   73  48  40 W12G17    29.89F
SIOUX LOOKOUT  MOSUNNY   70  45  40 W15G24    29.84F
TORONTO        LGT RAIN  59  54  82 W7G20     29.92S
BIG TROUT LK   MOSUNNY   63  54  72 W9        29.66S
PICKLE LAKE    PTSUNNY   70  41  35 W17       29.76F
DRYDEN         MOSUNNY   70  41  35 SW20G28   29.84F
KENORA         MOSUNNY   68  43  40 SW18G25   29.85F
$$
                *** MANITOBA***

CITY           SKY/WX    TMP DP  RH WIND       PRES   REMARKS
BRANDON        PTSUNNY   75  52  43 S17G28    29.63F
DAUPHIN        SUNNY     77  54  44 E6        29.58F
ISLAND LAKE    MOSUNNY   68  52  56 N5        29.71S
PILOT MOUND      N/A     72  48  43 S26G35      N/A
THE PAS        PTSUNNY   72  48  43 E13G24    29.60F
THOMPSON       PTSUNNY   59  43  55 NE13G18   29.78F
WINNIPEG       PTSUNNY   72  50  46 S22       29.74F
LYNN LAKE      SUNNY     59  43  55 E18G26    29.75F
CHURCHILL      MOSUNNY   46  43  87 NE10      29.97S
GILLAM         PTSUNNY   54  43  66 NE15G24   29.83R
$$
                ***SASKATCHEWAN***

CITY           SKY/WX    TMP DP  RH WIND       PRES   REMARKS
ESTEVAN        PTSUNNY   75  50  41 S10       29.56F
KINDERSLEY     PTSUNNY   64  52  63 NW16G25   29.60R
LLOYDMINSTER   MOSUNNY   66  48  52 NW23G31   29.58R
PRINCE ALBERT  LGT RAIN  72  54  53 SE6       29.46R
REGINA         PTSUNNY   77  52  41 S10       29.49F
YORKTON        SUNNY     73  54  49 SE14G20   29.53F
N. BATTLEFORD  NOT AVBL
LA RONGE       PTSUNNY   72  48  43 E15G29    29.51F
SASKATOON      PTSUNNY   75  57  53 NW12      29.43S
SWIFT CURRENT  CLOUDY    61  55  82 W24G30    29.59S
$$
NOTE: THESE ARE AUTOMATED STATIONS WITH LIMITED QUALITY CONTROL
      "FAIR" INDICATES FEW OR NO CLOUDS BELOW 12,000 FEET WITH NO
      SIGNIFICANT WEATHER AND/OR OBSTRUCTIONS TO VISIBILITY.
      SKY/WX - SKY CONDITION AND SIGNIFICANT WEATHER.
      TMP - AIR TEMPERATURE.    DP   - DEWPOINT TEMPERATURE.
      RH  - RELATIVE HUMIDITY.  PRES - PRESSURE.
      HX  - HEAT INDEX.         WCI  - WIND CHILL INDEX.
$



USA.gov is the U.S. government's official web portal to all federal, state and local government web resources and services.